Location: Kikino
(54.4440°N, 112.0940°W)
Time: 15:15:22
(UTC+00:00)

AO-27 - Pass Details

Date: 10 December 2023
Orbit: 784 x 797 km, 98.8° (Epoch: 28 February)

Event Time Altitude Azimuth Distance (km) Brightness Sun altitude
Exits shadow 02:00:21 14° 8° (N) 2,107 9.7 -24.1°
Drops below altitude 10° 02:01:15 10° 1° (N) 2,382 10.1 -24.2°
Sets 02:03:57 0° 349° (N) 3,317 11.0 -24.6°
